Date,TemperatureHighF,TemperatureAvgF,TemperatureLowF,DewpointHighF,DewpointAvgF,DewpointLowF,HumidityHigh,HumidityAvg,HumidityLow,PressureMaxIn,PressureMinIn,WindSpeedMaxMPH,WindSpeedAvgMPH,GustSpeedMaxMPH,PrecipitationSumIn
2013-3-1,82.0,60.7,45.6,22.0,18.2,8.1,30,20,9,29.83,29.68,15,4,22,0.00
2013-3-2,86.7,64.1,50.9,27.0,24.6,19.7,35,23,10,29.74,29.47,10,4,60,0.53
2013-3-3,78.2,63.7,51.8,34.2,27.5,21.2,36,26,12,29.53,29.35,10,4,12,0.00
2013-3-4,78.6,63.2,54.8,38.5,35.5,26.1,49,36,20,29.53,29.35,16,4,23,0.00
2013-3-5,80.2,62.6,52.4,38.7,35.9,32.0,56,38,18,29.59,29.41,12,4,19,0.00
2013-3-6,78.5,61.2,51.0,38.7,35.3,21.4,57,40,13,29.50,29.35,12,5,15,0.00
2013-3-7,74.1,60.8,50.6,38.0,34.9,29.8,55,38,20,29.44,29.26,16,5,22,0.00
2013-3-8,63.9,53.0,48.1,47.7,36.3,29.5,87,54,30,29.47,29.26,25,6,32,0.01
2013-3-9,67.9,57.8,46.3,38.2,34.9,31.9,72,44,27,29.59,29.44,20,7,27,0.00
2013-3-10,74.4,62.1,47.8,38.3,30.0,22.2,66,33,15,29.68,29.56,21,8,37,0.00
2013-3-11,80.6,61.7,48.4,27.4,24.6,19.4,40,25,10,29.65,29.47,14,4,18,0.00
2013-3-12,86.9,66.6,49.6,28.9,25.9,23.3,42,22,10,29.59,29.47,12,3,25,0.00
2013-3-13,91.6,72.1,56.8,31.0,28.2,25.8,32,20,10,29.62,29.47,12,4,19,0.00
2013-3-14,95.8,74.3,60.6,37.0,30.1,27.2,28,20,9,29.56,29.41,11,3,15,0.00
2013-3-15,94.6,75.5,61.6,36.5,31.2,25.3,29,20,8,29.47,29.29,13,4,16,0.00
2013-3-16,90.1,73.4,62.0,37.7,31.6,24.9,32,22,10,29.35,29.21,15,4,18,0.00
2013-3-17,107.6,71.6,59.8,47.1,35.1,15.2,45,29,6,29.38,27.17,18,5,40,0.00
2013-3-18,83.9,68.9,58.6,45.6,39.1,24.8,49,35,11,29.47,29.32,16,5,20,0.00
2013-3-19,85.3,70.3,59.4,47.4,38.0,26.6,48,32,13,29.47,29.38,16,4,20,0.00
2013-3-20,87.4,73.0,59.5,40.8,34.6,26.3,45,25,11,29.50,29.26,18,7,23,0.00
2013-3-21,86.2,70.3,61.6,42.4,36.8,29.9,41,30,14,29.29,29.15,16,6,20,0.00
2013-3-22,86.0,67.7,56.1,40.1,27.5,14.5,47,24,7,29.29,29.15,20,6,25,0.00
2013-3-23,79.2,64.0,54.4,39.4,8.7,3.4,41,12,5,29.50,29.26,21,9,26,0.00
2013-3-24,81.8,64.1,52.2,12.1,6.9,3.3,15,10,5,29.50,29.35,14,5,18,0.00
2013-3-25,86.0,69.6,53.8,19.9,14.2,5.6,18,12,6,29.47,29.32,11,4,17,0.00
2013-3-26,89.0,71.3,58.5,34.7,23.1,12.9,28,17,8,29.38,29.26,19,5,24,0.00
2013-3-27,85.6,71.3,61.0,34.6,29.0,19.9,33,21,9,29.41,29.29,16,5,21,0.00
2013-3-28,85.3,70.7,60.5,36.5,32.1,26.7,37,25,12,29.50,29.38,14,4,18,0.00
2013-3-29,87.3,73.3,58.8,39.3,31.1,27.5,34,21,12,29.56,29.44,13,4,17,0.00
2013-3-30,89.3,73.4,64.3,38.4,30.4,20.6,32,21,8,29.50,29.38,14,4,18,0.00
2013-3-31,86.5,70.2,59.9,41.2,36.8,32.7,46,30,17,29.50,29.35,20,7,24,0.00